Lid_Strength_Index
15 15 15 15 15 15 16 15 17 15 14 12 11 11 10 8 8 9 8 7 8 8 8 7 7 6 6 6 5 5 6 7 7 7 6 5 4 4 3 3 3 3 3 3
19 16 17 18 17 16 15 14 14 14 14 11 10 9 10 9 9 9 9 8 8 8 8 7 7 7 6 7 6 5 5 7 7 7 7 7 7 7 6 6 7 6 5 6
20 18 18 20 17 17 16 15 15 17 13 12 12 11 11 11 10 10 9 8 8 8 8 7 7 7 7 6 6 6 5 6 8 8 7 8 8 8 8 8 8 8 8 8
20 18 23 18 14 13 15 14 14 13 13 12 12 11 11 9 9 9 9 9 9 8 8 7 7 7 6 6 7 6 6 6 8 8 8 8 8 8 8 8 8 8 9 8
21 21 18 18 17 16 17 16 14 14 13 13 12 12 11 9 9 9 9 9 9 8 9 8 8 7 7 7 7 7 7 7 8 8 9 8 9 9 8 8 9 9 9 9
19 22 22 18 16 15 15 18 14 14 14 13 13 16 13 10 10 10 9 9 9 9 9 8 8 7 8 8 7 8 7 7 8 8 8 8 8 8 8 9 9 9 9 9
19 20 18 17 15 14 19 18 14 13 13 13 14 13 12 11 11 10 10 10 9 9 9 8 8 8 9 8 8 7 7 7 8 9 9 8 8 8 9 9 10 10 11 10
18 19 21 15 15 17 16 13 13 13 13 14 13 12 12 12 11 11 11 10 9 9 9 8 8 9 9 9 8 8 7 8 9 10 10 8 9 9 10 10 12 12 12 12
16 16 15 14 15 13 13 14 13 13 13 13 14 13 13 13 12 12 11 10 10 10 10 9 9 9 9 9 8 8 8 8 9 10 10 9 9 10 11 11 12 12 12 12
17 16 16 14 13 13 13 14 13 13 13 14 14 14 13 13 12 12 11 11 11 11 11 10 9 9 9 9 8 9 9 9 10 11 10 9 9 10 11 12 12 12 12 12
16 15 15 14 13 13 13 13 14 13 14 14 14 14 14 13 13 12 12 11 11 11 11 11 9 9 9 9 9 10 10 9 11 11 10 10 10 10 11 10 11 12 11 11
18 15 15 14 13 13 14 15 14 14 14 13 13 14 13 13 12 12 12 11 12 11 11 11 10 9 9 9 9 10 10 9 10 11 11 11 12 12 10 9 9 9 10 10
15 14 15 14 14 13 15 14 14 14 14 14 13 13 13 13 12 11 12 12 12 11 11 11 10 10 9 9 9 10 10 9 10 11 11 12 12 12 13 10 10 9 9 9
14 15 15 14 15 14 14 14 13 13 13 13 13 13 13 13 12 13 13 12 11 11 10 11 11 10 9 8 9 9 9 9 10 11 11 12 12 12 12 12 13 12 10 9
15 14 15 14 14 14 13 14 14 14 14 14 13 13 13 14 13 13 12 11 11 11 10 10 10 10 8 8 9 9 9 10 10 11 11 11 12 12 12 12 12 12 12 10
15 15 15 16 15 15 14 14 15 15 14 14 14 14 13 13 13 12 11 11 12 11 9 9 10 9 8 8 9 9 9 9 10 11 12 12 12 12 12 12 12 12 12 12
17 17 17 16 16 15 15 14 14 14 14 14 14 14 13 13 13 13 12 12 11 10 10 9 9 8 8 8 8 8 8 9 9 11 12 12 12 12 12 12 12 12 12 11
16 16 15 15 15 15 15 14 14 14 14 14 14 14 14 15 15 14 13 12 11 11 11 10 9 8 8 8 8 8 9 10 10 11 11 12 12 12 12 12 12 12 12 11
15 15 15 15 15 15 15 15 14 14 13 14 14 15 14 14 14 14 13 13 13 13 13 11 9 8 8 7 7 7 9 10 11 11 11 11 12 12 12 12 12 12 11 11
16 16 16 16 15 15 16 14 14 14 14 14 14 15 15 15 14 14 14 14 14 13 11 11 10 8 8 7 6 8 10 10 11 11 11 11 11 12 12 11 12 11 11 12
17 18 18 18 17 16 15 15 15 15 14 14 15 16 16 15 14 14 15 15 14 12 11 11 10 9 7 6 7 8 10 10 11 11 11 11 11 11 11 11 11 11 11 12
18 19 20 19 18 17 16 15 15 14 14 15 15 15 16 16 15 15 14 15 13 12 12 12 11 9 8 7 8 8 10 10 10 10 11 11 11 11 11 11 11 11 11 11
18 18 18 19 19 18 17 15 16 15 15 15 15 16 16 16 15 16 17 14 13 13 13 12 11 10 10 10 9 8 9 10 10 10 10 10 11 11 11 11 11 11 11 11
18 18 18 17 17 16 16 15 15 15 15 15 15 15 16 16 15 14 14 13 12 13 14 12 12 11 12 13 12 12 10 10 10 10 10 10 10 11 11 11 11 11 11 11
18 17 16 16 15 15 14 14 14 14 14 15 15 15 15 15 15 15 15 15 14 14 15 13 13 13 15 15 15 14 14 13 11 10 10 11 11 11 11 11 11 11 11 11
15 15 14 14 14 14 14 14 15 15 14 15 15 15 15 15 15 15 15 14 15 15 16 16 15 16 16 16 16 16 15 16 16 15 14 13 12 12 12 12 12 12 12 12
13 12 13 13 13 13 14 14 15 16 15 15 16 16 16 16 16 15 15 16 16 17 17 16 16 15 17 17 17 17 18 17 15 17 17 17 16 16 16 15 15 15 15 14